Time,TemperatureF,DewpointF,PressureIn,WindDirection,WindDirectionDegrees,WindSpeedMPH,WindSpeedGustMPH,Humidity,HourlyPrecipIn,Conditions,Clouds,dailyrainin,SoftwareType,DateUTC
2013-11-11 00:00:00,39.5,27.9,30.22,WNW,285,3.0,8.0,63,0.00,,,0.00,Wunderground v.1.15,2013-11-11 05:00:00,
2013-11-11 00:05:00,39.6,28.0,30.22,SW,233,4.0,8.0,63,0.00,,,0.00,Wunderground v.1.15,2013-11-11 05:05:00,
2013-11-11 00:10:00,39.6,28.0,30.22,WSW,256,4.0,4.0,63,0.00,,,0.00,Wunderground v.1.15,2013-11-11 05:10:00,
2013-11-11 00:15:00,39.7,28.1,30.23,WSW,237,5.0,6.0,63,0.00,,,0.00,Wunderground v.1.15,2013-11-11 05:15:00,
2013-11-11 00:20:00,39.8,28.2,30.23,SSW,199,7.0,7.0,63,0.00,,,0.00,Wunderground v.1.15,2013-11-11 05:20:00,
2013-11-11 00:25:00,39.8,28.2,30.23,WSW,244,6.0,7.0,63,0.00,,,0.00,Wunderground v.1.15,2013-11-11 05:25:00,
2013-11-11 00:30:00,39.6,28.0,30.23,SW,225,4.0,7.0,63,0.00,,,0.00,Wunderground v.1.15,2013-11-11 05:30:00,
2013-11-11 00:35:00,39.6,28.0,30.23,SSW,201,4.0,7.0,63,0.00,,,0.00,Wunderground v.1.15,2013-11-11 05:35:00,
2013-11-11 00:40:00,39.6,28.4,30.23,North,354,7.0,7.0,64,0.00,,,0.00,Wunderground v.1.15,2013-11-11 05:40:00,
2013-11-11 00:45:00,39.7,28.1,30.23,SW,218,5.0,7.0,63,0.00,,,0.00,Wunderground v.1.15,2013-11-11 05:45:00,
2013-11-11 00:50:00,39.5,28.3,30.23,SSE,158,3.0,3.0,64,0.00,,,0.00,Wunderground v.1.15,2013-11-11 05:50:00,
2013-11-11 00:55:00,39.4,28.2,30.23,SW,226,4.0,6.0,64,0.00,,,0.00,Wunderground v.1.15,2013-11-11 05:55:00,
2013-11-11 01:00:00,39.3,28.5,30.23,West,260,4.0,4.0,65,0.00,,,0.00,Wunderground v.1.15,2013-11-11 06:00:00,
2013-11-11 01:05:00,39.1,28.3,30.23,SW,217,2.0,4.0,65,0.00,,,0.00,Wunderground v.1.15,2013-11-11 06:05:00,
2013-11-11 01:15:00,38.9,28.5,30.24,WNW,283,3.0,5.0,66,0.00,,,0.00,Wunderground v.1.15,2013-11-11 06:15:00,
2013-11-11 01:20:00,38.9,28.5,30.24,SW,220,3.0,8.0,66,0.00,,,0.00,Wunderground v.1.15,2013-11-11 06:20:00,
2013-11-11 01:25:00,38.9,28.5,30.24,WNW,290,4.0,8.0,66,0.00,,,0.00,Wunderground v.1.15,2013-11-11 06:25:00,
2013-11-11 01:35:00,39.0,28.6,30.24,SW,222,4.0,5.0,66,0.00,,,0.00,Wunderground v.1.15,2013-11-11 06:35:00,
2013-11-11 01:45:00,38.9,28.9,30.24,West,266,4.0,4.0,67,0.00,,,0.00,Wunderground v.1.15,2013-11-11 06:45:00,
2013-11-11 01:50:00,39.1,29.1,30.24,SW,220,5.0,5.0,67,0.00,,,0.00,Wunderground v.1.15,2013-11-11 06:50:00,
2013-11-11 01:55:00,39.2,28.8,30.24,SW,231,5.0,5.0,66,0.00,,,0.00,Wunderground v.1.15,2013-11-11 06:55:00,
2013-11-11 02:00:00,39.0,28.6,30.25,West,261,3.0,3.0,66,0.00,,,0.00,Wunderground v.1.15,2013-11-11 07:00:00,
2013-11-11 02:05:00,38.8,28.8,30.25,SSE,166,2.0,3.0,67,0.00,,,0.00,Wunderground v.1.15,2013-11-11 07:05:00,
2013-11-11 02:15:00,38.9,28.9,30.25,West,260,3.0,6.0,67,0.00,,,0.00,Wunderground v.1.15,2013-11-11 07:15:00,
2013-11-11 02:20:00,39.1,29.1,30.25,SW,214,5.0,5.0,67,0.00,,,0.00,Wunderground v.1.15,2013-11-11 07:20:00,
2013-11-11 02:25:00,39.1,29.1,30.25,SW,223,3.0,5.0,67,0.00,,,0.00,Wunderground v.1.15,2013-11-11 07:25:00,
2013-11-11 02:30:00,39.1,29.1,30.25,West,266,3.0,3.0,67,0.00,,,0.00,Wunderground v.1.15,2013-11-11 07:30:00,
2013-11-11 02:35:00,38.9,28.9,30.25,SSW,206,3.0,3.0,67,0.00,,,0.00,Wunderground v.1.15,2013-11-11 07:35:00,
2013-11-11 02:40:00,38.7,29.0,30.25,WSW,256,3.0,4.0,68,0.00,,,0.00,Wunderground v.1.15,2013-11-11 07:40:00,
2013-11-11 02:50:00,38.7,29.0,30.25,SSW,212,2.0,2.0,68,0.00,,,0.00,Wunderground v.1.15,2013-11-11 07:50:00,
2013-11-11 02:55:00,38.6,28.9,30.25,South,189,3.0,3.0,68,0.00,,,0.00,Wunderground v.1.15,2013-11-11 07:55:00,
2013-11-11 03:00:00,38.6,28.9,30.24,SW,234,5.0,5.0,68,0.00,,,0.00,Wunderground v.1.15,2013-11-11 08:00:00,
2013-11-11 03:05:00,38.4,28.8,30.25,SW,226,4.0,5.0,68,0.00,,,0.00,Wunderground v.1.15,2013-11-11 08:05:00,
2013-11-11 03:15:00,38.2,28.9,30.24,SW,236,2.0,6.0,69,0.00,,,0.00,Wunderground v.1.15,2013-11-11 08:15:00,
2013-11-11 03:20:00,37.9,28.6,30.24,WSW,247,2.0,2.0,69,0.00,,,0.00,Wunderground v.1.15,2013-11-11 08:20:00,
2013-11-11 03:25:00,37.8,28.5,30.24,WSW,245,2.0,2.0,69,0.00,,,0.00,Wunderground v.1.15,2013-11-11 08:25:00,
2013-11-11 03:30:00,37.7,28.4,30.24,WSW,240,2.0,3.0,69,0.00,,,0.00,Wunderground v.1.15,2013-11-11 08:30:00,
2013-11-11 03:35:00,37.7,28.4,30.23,SW,231,3.0,3.0,69,0.00,,,0.00,Wunderground v.1.15,2013-11-11 08:35:00,
2013-11-11 03:40:00,37.7,28.4,30.23,SSW,209,3.0,5.0,69,0.00,,,0.00,Wunderground v.1.15,2013-11-11 08:40:00,
2013-11-11 03:45:00,37.9,28.6,30.23,SSW,206,3.0,5.0,69,0.00,,,0.00,Wunderground v.1.15,2013-11-11 08:45:00,
2013-11-11 03:55:00,37.7,28.4,30.23,SW,221,1.0,4.0,69,0.00,,,0.00,Wunderground v.1.15,2013-11-11 08:55:00,
2013-11-11 04:00:00,37.6,28.3,30.23,North,354,1.0,1.0,69,0.00,,,0.00,Wunderground v.1.15,2013-11-11 09:00:00,
2013-11-11 04:05:00,37.6,28.3,30.23,WSW,248,3.0,3.0,69,0.00,,,0.00,Wunderground v.1.15,2013-11-11 09:05:00,
2013-11-11 04:15:00,37.7,28.4,30.23,SSE,166,1.0,2.0,69,0.00,,,0.00,Wunderground v.1.15,2013-11-11 09:15:00,
2013-11-11 04:20:00,37.5,28.2,30.23,WNW,289,2.0,2.0,69,0.00,,,0.00,Wunderground v.1.15,2013-11-11 09:20:00,
2013-11-11 04:30:00,37.2,28.3,30.23,WNW,302,1.0,1.0,70,0.00,,,0.00,Wunderground v.1.15,2013-11-11 09:30:00,
2013-11-11 04:35:00,37.1,28.2,30.23,SW,231,1.0,1.0,70,0.00,,,0.00,Wunderground v.1.15,2013-11-11 09:35:00,
2013-11-11 04:40:00,37.0,28.1,30.23,West,268,1.0,1.0,70,0.00,,,0.00,Wunderground v.1.15,2013-11-11 09:40:00,
2013-11-11 04:45:00,37.0,28.1,30.23,West,268,1.0,1.0,70,0.00,,,0.00,Wunderground v.1.15,2013-11-11 09:45:00,
2013-11-11 04:50:00,37.2,28.3,30.23,WNW,289,2.0,2.0,70,0.00,,,0.00,Wunderground v.1.15,2013-11-11 09:50:00,
2013-11-11 04:55:00,37.3,28.4,30.23,WNW,296,2.0,2.0,70,0.00,,,0.00,Wunderground v.1.15,2013-11-11 09:55:00,
2013-11-11 05:05:00,36.8,28.3,30.23,WNW,297,1.0,1.0,71,0.00,,,0.00,Wunderground v.1.15,2013-11-11 10:05:00,
2013-11-11 05:15:00,36.6,28.4,30.24,WNW,297,0.0,0.0,72,0.00,,,0.00,Wunderground v.1.15,2013-11-11 10:15:00,
2013-11-11 05:20:00,36.5,28.3,30.24,WNW,297,0.0,1.0,72,0.00,,,0.00,Wunderground v.1.15,2013-11-11 10:20:00,
2013-11-11 05:30:00,36.3,28.1,30.24,WNW,297,0.0,0.0,72,0.00,,,0.00,Wunderground v.1.15,2013-11-11 10:30:00,
2013-11-11 05:35:00,36.2,28.4,30.25,WNW,297,0.0,1.0,73,0.00,,,0.00,Wunderground v.1.15,2013-11-11 10:35:00,
2013-11-11 05:45:00,36.1,28.3,30.25,WNW,297,1.0,1.0,73,0.00,,,0.00,Wunderground v.1.15,2013-11-11 10:45:00,
2013-11-11 05:50:00,36.0,28.2,30.24,WNW,297,1.0,1.0,73,0.00,,,0.00,Wunderground v.1.15,2013-11-11 10:50:00,
2013-11-11 05:55:00,35.9,28.4,30.25,WNW,297,0.0,1.0,74,0.00,,,0.00,Wunderground v.1.15,2013-11-11 10:55:00,
2013-11-11 06:00:00,35.9,28.4,30.25,WNW,297,0.0,0.0,74,0.00,,,0.00,Wunderground v.1.15,2013-11-11 11:00:00,
2013-11-11 06:05:00,36.2,28.7,30.25,West,261,1.0,2.0,74,0.00,,,0.00,Wunderground v.1.15,2013-11-11 11:05:00,
2013-11-11 06:15:00,36.5,28.7,30.25,WNW,287,2.0,2.0,73,0.00,,,0.00,Wunderground v.1.15,2013-11-11 11:15:00,
2013-11-11 06:20:00,36.4,28.6,30.25,West,276,0.0,4.0,73,0.00,,,0.00,Wunderground v.1.15,2013-11-11 11:20:00,
2013-11-11 06:25:00,36.4,28.6,30.24,West,261,1.0,4.0,73,0.00,,,0.00,Wunderground v.1.15,2013-11-11 11:25:00,
2013-11-11 06:30:00,36.3,28.5,30.24,WSW,249,1.0,3.0,73,0.00,,,0.00,Wunderground v.1.15,2013-11-11 11:30:00,
2013-11-11 06:35:00,36.3,28.5,30.24,WSW,238,2.0,3.0,73,0.00,,,0.00,Wunderground v.1.15,2013-11-11 11:35:00,
2013-11-11 06:45:00,36.8,28.6,30.25,SW,236,2.0,3.0,72,0.00,,,0.00,Wunderground v.1.15,2013-11-11 11:45:00,
2013-11-11 06:50:00,36.8,28.6,30.25,West,274,1.0,3.0,72,0.00,,,0.00,Wunderground v.1.15,2013-11-11 11:50:00,
2013-11-11 06:55:00,36.6,28.4,30.25,WNW,294,1.0,3.0,72,0.00,,,0.00,Wunderground v.1.15,2013-11-11 11:55:00,
2013-11-11 07:00:00,36.7,28.5,30.25,West,274,2.0,2.0,72,0.00,,,0.00,Wunderground v.1.15,2013-11-11 12:00:00,
2013-11-11 07:05:00,36.8,28.6,30.25,WSW,245,3.0,3.0,72,0.00,,,0.00,Wunderground v.1.15,2013-11-11 12:05:00,
2013-11-11 07:15:00,36.8,28.6,30.25,WSW,242,1.0,3.0,72,0.00,,,0.00,Wunderground v.1.15,2013-11-11 12:15:00,
2013-11-11 07:20:00,36.6,28.4,30.25,West,264,2.0,2.0,72,0.00,,,0.00,Wunderground v.1.15,2013-11-11 12:20:00,
2013-11-11 07:25:00,36.6,28.4,30.25,West,270,2.0,3.0,72,0.00,,,0.00,Wunderground v.1.15,2013-11-11 12:25:00,
2013-11-11 07:30:00,36.8,28.6,30.25,West,278,1.0,1.0,72,0.00,,,0.00,Wunderground v.1.15,2013-11-11 12:30:00,
2013-11-11 07:35:00,37.0,28.5,30.25,West,262,1.0,3.0,71,0.00,,,0.00,Wunderground v.1.15,2013-11-11 12:35:00,
2013-11-11 07:40:00,37.1,28.6,30.25,WSW,251,2.0,2.0,71,0.00,,,0.00,Wunderground v.1.15,2013-11-11 12:40:00,
2013-11-11 07:50:00,37.4,28.9,30.25,SW,225,2.0,2.0,71,0.00,,,0.00,Wunderground v.1.15,2013-11-11 12:50:00,
2013-11-11 07:55:00,37.5,28.9,30.25,West,262,2.0,2.0,71,0.00,,,0.00,Wunderground v.1.15,2013-11-11 12:55:00,
2013-11-11 08:00:00,37.7,29.1,30.25,West,265,3.0,3.0,71,0.00,,,0.00,Wunderground v.1.15,2013-11-11 13:00:00,
2013-11-11 08:05:00,38.0,29.1,30.25,WNW,282,3.0,3.0,70,0.00,,,0.00,Wunderground v.1.15,2013-11-11 13:05:00,
2013-11-11 08:15:00,38.4,29.1,30.25,West,276,2.0,4.0,69,0.00,,,0.00,Wunderground v.1.15,2013-11-11 13:15:00,
2013-11-11 08:20:00,38.6,29.3,30.25,WSW,251,2.0,3.0,69,0.00,,,0.00,Wunderground v.1.15,2013-11-11 13:20:00,
2013-11-11 08:25:00,38.9,29.2,30.25,SW,233,2.0,3.0,68,0.00,,,0.00,Wunderground v.1.15,2013-11-11 13:25:00,
2013-11-11 08:30:00,39.4,29.3,30.25,SW,230,3.0,3.0,67,0.00,,,0.00,Wunderground v.1.15,2013-11-11 13:30:00,
2013-11-11 08:40:00,40.3,29.8,30.25,South,181,2.0,3.0,66,0.00,,,0.00,Wunderground v.1.15,2013-11-11 13:40:00,
2013-11-11 08:45:00,40.7,29.5,30.25,SW,225,4.0,4.0,64,0.00,,,0.00,Wunderground v.1.15,2013-11-11 13:45:00,
2013-11-11 08:50:00,40.9,29.3,30.25,WNW,287,4.0,4.0,63,0.00,,,0.00,Wunderground v.1.15,2013-11-11 13:50:00,
2013-11-11 09:00:00,41.2,29.5,30.24,SW,225,1.0,2.0,63,0.00,,,0.00,Wunderground v.1.15,2013-11-11 14:00:00,
2013-11-11 09:05:00,41.3,29.3,30.24,WSW,251,2.0,3.0,62,0.00,,,0.00,Wunderground v.1.15,2013-11-11 14:05:00,
2013-11-11 09:15:00,41.6,28.7,30.24,West,263,2.0,3.0,60,0.00,,,0.00,Wunderground v.1.15,2013-11-11 14:15:00,
2013-11-11 09:20:00,41.9,29.0,30.24,WNW,297,1.0,1.0,60,0.00,,,0.00,Wunderground v.1.15,2013-11-11 14:20:00,
2013-11-11 09:30:00,42.3,31.0,30.24,South,187,0.0,0.0,64,0.00,,,0.00,Wunderground v.1.15,2013-11-11 14:30:00,
2013-11-11 09:35:00,42.3,30.2,30.23,SW,216,0.0,0.0,62,0.00,,,0.00,Wunderground v.1.15,2013-11-11 14:35:00,
2013-11-11 09:40:00,42.4,31.5,30.23,SW,217,0.0,0.0,65,0.00,,,0.00,Wunderground v.1.15,2013-11-11 14:40:00,
2013-11-11 09:45:00,42.5,31.6,30.23,SW,216,0.0,0.0,65,0.00,,,0.00,Wunderground v.1.15,2013-11-11 14:45:00,
2013-11-11 09:50:00,42.6,31.3,30.23,SW,216,0.0,0.0,64,0.00,,,0.00,Wunderground v.1.15,2013-11-11 14:50:00,
2013-11-11 09:55:00,42.7,29.4,30.22,SW,216,0.0,0.0,59,0.00,,,0.00,Wunderground v.1.15,2013-11-11 14:55:00,
2013-11-11 10:05:00,43.6,32.2,30.23,East,99,1.0,2.0,64,0.00,,,0.00,Wunderground v.1.15,2013-11-11 15:05:00,
2013-11-11 10:15:00,43.8,31.6,30.23,East,85,1.0,1.0,62,0.00,,,0.00,Wunderground v.1.15,2013-11-11 15:15:00,
2013-11-11 10:20:00,44.1,31.9,30.23,ENE,61,1.0,1.0,62,0.00,,,0.00,Wunderground v.1.15,2013-11-11 15:20:00,
2013-11-11 10:25:00,44.4,31.8,30.23,ENE,66,1.0,1.0,61,0.00,,,0.00,Wunderground v.1.15,2013-11-11 15:25:00,
2013-11-11 10:30:00,44.6,31.6,30.23,ESE,106,1.0,1.0,60,0.00,,,0.00,Wunderground v.1.15,2013-11-11 15:30:00,
2013-11-11 10:40:00,44.7,31.2,30.22,ESE,119,1.0,1.0,59,0.00,,,0.00,Wunderground v.1.15,2013-11-11 15:40:00,
2013-11-11 10:45:00,44.7,30.8,30.22,ESE,119,1.0,1.0,58,0.00,,,0.00,Wunderground v.1.15,2013-11-11 15:45:00,
2013-11-11 10:50:00,44.8,31.8,30.21,ESE,119,0.0,0.0,60,0.00,,,0.00,Wunderground v.1.15,2013-11-11 15:50:00,
2013-11-11 10:55:00,44.9,31.8,30.21,ESE,119,0.0,0.0,60,0.00,,,0.00,Wunderground v.1.15,2013-11-11 15:55:00,
2013-11-11 11:00:00,45.2,31.3,30.20,ENE,60,1.0,1.0,58,0.00,,,0.00,Wunderground v.1.15,2013-11-11 16:00:00,
2013-11-11 11:05:00,45.4,31.5,30.20,ENE,60,1.0,1.0,58,0.00,,,0.00,Wunderground v.1.15,2013-11-11 16:05:00,
2013-11-11 11:15:00,46.0,31.2,30.19,East,93,1.0,1.0,56,0.00,,,0.00,Wunderground v.1.15,2013-11-11 16:15:00,
2013-11-11 11:20:00,46.3,31.4,30.19,East,97,1.0,1.0,56,0.00,,,0.00,Wunderground v.1.15,2013-11-11 16:20:00,
2013-11-11 11:25:00,46.6,31.3,30.18,East,97,1.0,1.0,55,0.00,,,0.00,Wunderground v.1.15,2013-11-11 16:25:00,
2013-11-11 11:30:00,46.8,31.5,30.18,East,97,0.0,1.0,55,0.00,,,0.00,Wunderground v.1.15,2013-11-11 16:30:00,
2013-11-11 11:40:00,47.3,31.5,30.17,East,97,0.0,0.0,54,0.00,,,0.00,Wunderground v.1.15,2013-11-11 16:40:00,
2013-11-11 11:45:00,47.6,32.2,30.17,East,97,0.0,0.0,55,0.00,,,0.00,Wunderground v.1.15,2013-11-11 16:45:00,
2013-11-11 11:50:00,48.0,32.1,30.17,East,97,0.0,0.0,54,0.00,,,0.00,Wunderground v.1.15,2013-11-11 16:50:00,
2013-11-11 12:00:00,48.7,31.4,30.16,East,96,0.0,0.0,51,0.00,,,0.00,Wunderground v.1.15,2013-11-11 17:00:00,
2013-11-11 12:05:00,49.4,32.5,30.16,East,97,0.0,3.0,52,0.00,,,0.00,Wunderground v.1.15,2013-11-11 17:05:00,
2013-11-11 12:15:00,51.6,31.5,30.15,ENE,77,1.0,1.0,46,0.00,,,0.00,Wunderground v.1.15,2013-11-11 17:15:00,
2013-11-11 12:20:00,52.7,30.8,30.15,East,98,2.0,5.0,43,0.00,,,0.00,Wunderground v.1.15,2013-11-11 17:20:00,
2013-11-11 12:25:00,53.7,30.5,30.14,SSE,163,2.0,5.0,41,0.00,,,0.00,Wunderground v.1.15,2013-11-11 17:25:00,
2013-11-11 12:30:00,53.9,30.1,30.14,East,79,2.0,3.0,40,0.00,,,0.00,Wunderground v.1.15,2013-11-11 17:30:00,
2013-11-11 12:35:00,54.9,31.6,30.14,SE,134,2.0,3.0,41,0.00,,,0.00,Wunderground v.1.15,2013-11-11 17:35:00,
2013-11-11 12:40:00,55.5,30.9,30.13,East,93,2.0,2.0,39,0.00,,,0.00,Wunderground v.1.15,2013-11-11 17:40:00,
2013-11-11 12:50:00,56.5,31.8,30.12,SE,133,1.0,3.0,39,0.00,,,0.00,Wunderground v.1.15,2013-11-11 17:50:00,
2013-11-11 12:55:00,57.2,31.8,30.12,ESE,103,2.0,3.0,38,0.00,,,0.00,Wunderground v.1.15,2013-11-11 17:55:00,
2013-11-11 13:00:00,57.8,31.7,30.12,ESE,107,1.0,1.0,37,0.00,,,0.00,Wunderground v.1.15,2013-11-11 18:00:00,
2013-11-11 13:05:00,57.9,31.1,30.11,ESE,120,1.0,3.0,36,0.00,,,0.00,Wunderground v.1.15,2013-11-11 18:05:00,
2013-11-11 13:15:00,58.3,30.0,30.10,ESE,106,2.0,2.0,34,0.00,,,0.00,Wunderground v.1.15,2013-11-11 18:15:00,
2013-11-11 13:25:00,58.8,22.0,30.09,SW,234,4.0,6.0,24,0.00,,,0.00,Wunderground v.1.15,2013-11-11 18:25:00,
2013-11-11 13:30:00,59.1,28.5,30.09,SW,232,5.0,5.0,31,0.00,,,0.00,Wunderground v.1.15,2013-11-11 18:30:00,
2013-11-11 13:35:00,59.4,17.1,30.09,SW,224,5.0,9.0,19,0.00,,,0.00,Wunderground v.1.15,2013-11-11 18:35:00,
2013-11-11 13:40:00,59.9,17.5,30.09,SSW,204,7.0,7.0,19,0.00,,,0.00,Wunderground v.1.15,2013-11-11 18:40:00,
2013-11-11 13:45:00,59.7,14.8,30.09,SW,231,7.0,8.0,17,0.00,,,0.00,Wunderground v.1.15,2013-11-11 18:45:00,
2013-11-11 13:50:00,59.7,17.3,30.09,SW,224,8.0,8.0,19,0.00,,,0.00,Wunderground v.1.15,2013-11-11 18:50:00,
2013-11-11 14:00:00,59.9,16.2,30.08,SW,231,6.0,6.0,18,0.00,,,0.00,Wunderground v.1.15,2013-11-11 19:00:00,
2013-11-11 14:05:00,60.3,16.6,30.08,SW,229,5.0,7.0,18,0.00,,,0.00,Wunderground v.1.15,2013-11-11 19:05:00,
2013-11-11 14:15:00,61.8,16.5,30.07,WSW,245,6.0,6.0,17,0.00,,,0.00,Wunderground v.1.15,2013-11-11 19:15:00,
2013-11-11 14:20:00,61.3,17.4,30.06,WSW,245,6.0,7.0,18,0.00,,,0.00,Wunderground v.1.15,2013-11-11 19:20:00,
2013-11-11 14:30:00,62.1,15.3,30.07,West,275,7.0,11.0,16,0.00,,,0.00,Wunderground v.1.15,2013-11-11 19:30:00,
2013-11-11 14:35:00,61.5,13.4,30.06,SW,232,10.0,11.0,15,0.00,,,0.00,Wunderground v.1.15,2013-11-11 19:35:00,
2013-11-11 14:40:00,61.0,14.4,30.06,SSW,210,10.0,10.0,16,0.00,,,0.00,Wunderground v.1.15,2013-11-11 19:40:00,
2013-11-11 14:45:00,61.2,16.0,30.06,SW,218,8.0,10.0,17,0.00,,,0.00,Wunderground v.1.15,2013-11-11 19:45:00,
2013-11-11 14:50:00,61.3,13.2,30.06,SSW,213,6.0,10.0,15,0.00,,,0.00,Wunderground v.1.15,2013-11-11 19:50:00,
2013-11-11 15:00:00,60.2,15.2,30.06,SSW,211,6.0,6.0,17,0.00,,,0.00,Wunderground v.1.15,2013-11-11 20:00:00,
2013-11-11 15:05:00,59.9,14.9,30.06,West,275,7.0,7.0,17,0.00,,,0.00,Wunderground v.1.15,2013-11-11 20:05:00,
2013-11-11 15:15:00,59.6,14.7,30.06,SSW,206,4.0,6.0,17,0.00,,,0.00,Wunderground v.1.15,2013-11-11 20:15:00,
2013-11-11 15:20:00,59.8,17.4,30.06,SW,224,3.0,3.0,19,0.00,,,0.00,Wunderground v.1.15,2013-11-11 20:20:00,
2013-11-11 15:25:00,59.7,16.1,30.06,WSW,249,3.0,3.0,18,0.00,,,0.00,Wunderground v.1.15,2013-11-11 20:25:00,
2013-11-11 15:30:00,59.5,15.9,30.05,SW,226,3.0,6.0,18,0.00,,,0.00,Wunderground v.1.15,2013-11-11 20:30:00,
2013-11-11 15:40:00,59.2,15.7,30.05,SW,220,3.0,3.0,18,0.00,,,0.00,Wunderground v.1.15,2013-11-11 20:40:00,
2013-11-11 15:45:00,59.0,15.5,30.05,SSW,206,4.0,4.0,18,0.00,,,0.00,Wunderground v.1.15,2013-11-11 20:45:00,
2013-11-11 15:50:00,58.9,15.4,30.05,SSW,200,3.0,3.0,18,0.00,,,0.00,Wunderground v.1.15,2013-11-11 20:50:00,
2013-11-11 15:55:00,58.8,14.0,30.05,SW,228,3.0,3.0,17,0.00,,,0.00,Wunderground v.1.15,2013-11-11 20:55:00,
2013-11-11 16:00:00,58.8,12.6,30.05,WSW,241,3.0,7.0,16,0.00,,,0.00,Wunderground v.1.15,2013-11-11 21:00:00,
2013-11-11 16:05:00,58.7,12.6,30.05,WSW,244,3.0,7.0,16,0.00,,,0.00,Wunderground v.1.15,2013-11-11 21:05:00,
2013-11-11 16:15:00,58.6,11.0,30.05,SSW,195,2.0,3.0,15,0.00,,,0.00,Wunderground v.1.15,2013-11-11 21:15:00,
2013-11-11 16:20:00,58.4,12.3,30.05,WSW,243,2.0,6.0,16,0.00,,,0.00,Wunderground v.1.15,2013-11-11 21:20:00,
2013-11-11 16:25:00,58.3,12.2,30.05,West,261,3.0,6.0,16,0.00,,,0.00,Wunderground v.1.15,2013-11-11 21:25:00,
2013-11-11 16:30:00,58.1,12.1,30.05,SSW,198,4.0,4.0,16,0.00,,,0.00,Wunderground v.1.15,2013-11-11 21:30:00,
2013-11-11 16:35:00,57.9,11.9,30.05,SW,224,6.0,6.0,16,0.00,,,0.00,Wunderground v.1.15,2013-11-11 21:35:00,
2013-11-11 16:45:00,57.4,11.5,30.05,WSW,237,6.0,6.0,16,0.00,,,0.00,Wunderground v.1.15,2013-11-11 21:45:00,
2013-11-11 16:50:00,57.3,11.4,30.05,SW,235,5.0,7.0,16,0.00,,,0.00,Wunderground v.1.15,2013-11-11 21:50:00,
2013-11-11 16:55:00,57.1,12.6,30.05,SW,223,5.0,7.0,17,0.00,,,0.00,Wunderground v.1.15,2013-11-11 21:55:00,
2013-11-11 17:00:00,56.9,12.5,30.04,WSW,237,4.0,4.0,17,0.00,,,0.00,Wunderground v.1.15,2013-11-11 22:00:00,
2013-11-11 17:05:00,56.7,9.5,30.04,WSW,247,4.0,8.0,15,0.00,,,0.00,Wunderground v.1.15,2013-11-11 22:05:00,
2013-11-11 17:10:00,56.8,12.4,30.04,SW,222,4.0,4.0,17,0.00,,,0.00,Wunderground v.1.15,2013-11-11 22:10:00,
2013-11-11 17:20:00,56.6,10.9,30.04,WSW,248,5.0,6.0,16,0.00,,,0.00,Wunderground v.1.15,2013-11-11 22:20:00,
2013-11-11 17:25:00,56.5,9.3,30.04,SW,231,5.0,6.0,15,0.00,,,0.00,Wunderground v.1.15,2013-11-11 22:25:00,
2013-11-11 17:35:00,56.5,9.3,30.04,WSW,237,6.0,7.0,15,0.00,,,0.00,Wunderground v.1.15,2013-11-11 22:35:00,
2013-11-11 17:40:00,56.5,9.3,30.04,SW,215,5.0,5.0,15,0.00,,,0.00,Wunderground v.1.15,2013-11-11 22:40:00,
2013-11-11 17:45:00,56.4,9.2,30.04,West,281,4.0,5.0,15,0.00,,,0.00,Wunderground v.1.15,2013-11-11 22:45:00,
2013-11-11 17:50:00,56.4,9.2,30.04,SW,234,4.0,4.0,15,0.00,,,0.00,Wunderground v.1.15,2013-11-11 22:50:00,
2013-11-11 17:55:00,56.3,9.2,30.04,WSW,250,4.0,6.0,15,0.00,,,0.00,Wunderground v.1.15,2013-11-11 22:55:00,
2013-11-11 18:00:00,56.2,9.1,30.04,SW,235,4.0,4.0,15,0.00,,,0.00,Wunderground v.1.15,2013-11-11 23:00:00,
2013-11-11 18:15:00,55.9,7.3,30.03,SSW,204,3.0,4.0,14,0.00,,,0.00,Wunderground v.1.15,2013-11-11 23:15:00,
2013-11-11 18:25:00,55.8,7.2,30.03,West,268,2.0,3.0,14,0.00,,,0.00,Wunderground v.1.15,2013-11-11 23:25:00,